Location: Sungai Buloh
(3.1000°N, 113.0000°E)
Time: 19:07:47
(UTC+00:00)

ATLAS 2AS CENTAUR R/B - Pass Details

Date: 12 January 2026
Orbit: 1050 x 1161 km, 63.7° (Epoch: 10 February)

Event Time Altitude Azimuth Distance (km) Brightness Sun altitude
Rises 12:20:26 0° 177° (S) 4,016 5.9 -25.3°
Reaches altitude 10° 12:23:49 10° 163° (SSE) 3,044 5.1 -26.1°
Enters shadow 12:27:24 21° 135° (SE) 2,318 4.2 -26.9°
